Theta_e
322 331 346 348 349 349 349 348 347 347 348 349 347 347 347 347 347 346 346 346 347 347 347 345 344 345 345 346 346 345 342 341 341 342 342 342 348 344 349 349 349 347 351
325 332 344 348 348 350 349 347 347 347 348 349 346 344 344 342 341 341 342 343 345 347 345 343 340 339 339 341 342 341 339 338 336 337 338 336 341 346 349 351 351 347 350
329 333 340 347 349 349 349 348 347 349 348 347 346 344 341 339 338 338 337 338 338 339 342 340 336 335 335 335 336 335 334 333 330 329 331 327 330 351 350 349 348 347 348
331 331 332 343 348 349 348 348 349 348 347 346 343 341 340 340 338 337 336 336 337 337 336 334 332 331 330 331 330 328 327 327 322 320 316 324 328 345 347 346 345 344 345
327 329 331 341 347 348 348 349 348 348 346 343 342 340 339 336 334 333 332 333 335 334 331 328 325 324 324 324 323 323 323 321 318 313 314 322 324 339 346 345 344 344 345
323 327 333 340 343 343 343 343 343 344 343 341 337 337 335 334 330 329 327 330 329 327 325 323 321 321 321 320 321 320 318 316 312 307 311 315 319 344 342 345 343 344 342
319 323 328 339 342 342 341 341 340 339 338 337 336 334 333 329 327 325 325 325 324 323 321 320 320 320 320 318 318 317 315 312 300 301 307 311 320 338 341 341 342 342 341
317 319 324 333 336 339 338 340 338 337 336 335 334 331 328 326 324 323 322 322 322 321 320 320 319 318 317 316 315 314 312 307 300 299 304 308 323 330 331 332 332 333 335
315 316 319 324 330 331 333 334 334 335 334 332 331 327 325 323 322 321 321 321 321 320 319 317 316 316 315 314 312 310 309 306 295 298 303 307 322 326 327 327 327 328 329
310 313 314 316 319 320 322 329 331 333 332 330 327 325 323 322 321 320 321 320 320 319 316 314 313 313 311 310 308 306 304 302 293 295 299 306 317 322 323 323 323 324 324
307 308 309 311 313 313 314 319 325 327 326 324 322 320 313 305 306 306 313 319 318 316 314 312 310 308 306 306 305 303 299 292 292 293 297 308 313 317 319 320 321 322 322
304 305 306 307 308 308 312 311 311 313 312 309 307 304 300 299 300 303 310 316 315 313 310 309 306 302 295 290 291 295 290 290 290 291 295 306 310 313 315 317 318 320 320
306 305 305 305 305 305 306 306 305 304 303 302 301 298 296 296 299 298 297 296 294 298 293 293 290 289 289 289 289 288 288 289 288 290 295 303 306 310 312 314 316 318 320
302 304 303 303 303 302 303 304 303 302 299 298 297 294 293 293 293 293 291 289 288 288 288 288 288 288 288 289 288 288 288 288 288 289 291 300 304 307 310 312 315 318 317
299 302 302 302 303 302 300 300 300 299 299 297 294 294 293 292 290 290 289 288 287 287 287 286 287 287 287 287 287 287 287 287 287 288 288 298 303 307 310 313 314 315 317
297 300 301 301 303 301 300 300 301 298 296 294 293 294 292 292 290 289 288 287 286 286 286 286 286 285 285 286 286 287 287 287 287 287 287 289 300 304 309 312 314 315 316
296 297 299 300 301 299 299 298 298 298 296 294 293 292 292 291 289 288 288 286 286 286 286 286 285 285 284 285 285 286 286 286 286 287 288 288 291 302 308 310 311 312 313
297 294 295 300 299 298 298 296 297 295 295 295 293 292 292 291 289 287 287 286 286 285 285 284 284 283 283 283 283 283 284 285 286 287 287 288 291 292 303 306 306 307 308
297 296 294 296 297 297 297 295 294 293 294 294 292 291 291 291 289 288 287 286 285 284 284 284 283 282 282 282 283 283 283 284 285 286 285 286 289 290 288 296 297 300 304
297 297 295 294 296 296 296 293 291 290 292 291 292 291 290 291 289 287 286 285 285 284 283 283 282 282 282 281 283 282 282 283 284 283 283 286 288 286 285 286 287 289 296
294 294 294 293 294 294 293 291 291 291 291 291 292 291 290 290 288 287 286 285 284 283 283 282 282 281 281 281 280 281 281 283 282 282 282 283 284 284 284 285 285 286 286
294 294 294 293 293 294 294 294 293 294 292 293 292 290 290 288 287 287 286 284 284 283 282 282 282 281 281 280 280 279 279 280 282 282 282 282 281 283 283 284 284 284 284
292 293 294 294 293 294 294 293 286 286 285 286 287 289 289 288 287 287 285 285 284 283 282 281 281 281 280 279 279 280 277 278 278 280 281 281 281 281 282 282 283 283 284
293 293 294 294 293 293 293 292 291 291 289 290 291 291 289 288 287 286 286 285 284 283 282 282 281 280 280 280 280 281 280 279 277 276 279 280 281 281 280 281 281 282 283
292 291 292 292 292 292 293 293 292 292 293 289 289 288 287 287 286 285 285 284 283 283 282 281 280 280 280 280 280 280 279 278 279 277 276 277 279 279 280 280 281 281 282
290 289 289 289 290 291 292 292 291 292 289 286 286 287 286 286 285 284 284 284 283 283 282 282 281 280 280 280 280 280 280 278 277 276 276 276 276 278 279 279 279 280 281
Wind_Speed
5 7 12 15 13 14 13 12 10 9 10 11 11 11 10 10 10 10 8 5 8 9 11 11 10 12 12 12 12 12 13 13 14 14 14 14 10 3 5 8 7 6 9
7 7 10 15 15 14 15 13 11 11 11 12 10 10 10 9 7 7 7 7 9 11 11 11 10 9 10 11 15 15 13 12 14 14 15 14 13 5 8 11 9 8 10
10 7 7 14 15 13 14 14 13 13 13 12 12 11 8 8 7 8 6 5 6 7 11 12 8 8 8 8 11 10 10 12 14 15 14 7 7 9 12 11 10 12 12
9 6 7 10 13 14 13 13 14 14 13 13 12 11 10 10 9 8 8 7 7 6 6 7 7 8 8 9 9 9 10 12 13 13 6 6 7 12 9 11 11 12 12
7 6 6 9 11 14 16 16 13 13 15 13 11 10 11 10 9 9 8 7 7 8 8 7 7 7 8 9 9 10 11 12 12 9 6 6 5 6 8 9 10 11 11
6 6 8 10 10 9 10 10 10 11 12 12 11 12 11 11 11 10 9 9 9 9 8 8 7 8 9 9 9 10 11 13 11 6 6 7 7 11 7 9 10 10 10
7 6 6 10 12 13 11 11 11 12 12 13 12 12 12 11 10 10 10 10 10 9 9 9 9 10 10 9 10 11 12 13 6 6 6 6 7 12 13 15 15 14 13
8 6 6 8 13 11 15 14 14 15 15 14 13 12 12 11 10 10 10 11 10 10 10 10 10 10 10 10 10 12 13 13 7 6 5 5 10 11 12 12 13 12 13
6 7 6 6 11 13 15 13 17 15 15 15 14 14 12 12 12 11 11 11 11 11 11 10 10 10 9 10 11 12 13 13 7 5 5 4 11 10 11 11 11 12 13
5 5 6 6 6 6 5 11 14 12 14 13 13 12 11 10 11 11 10 12 12 12 11 11 10 9 9 10 11 11 11 11 6 5 4 4 10 9 9 10 10 11 11
5 6 6 6 6 6 6 6 7 12 12 12 10 11 8 4 6 6 7 11 13 12 12 12 11 10 10 10 10 10 10 4 5 4 3 9 9 8 8 9 10 10 10
10 9 7 7 7 7 5 6 6 6 5 5 6 7 5 5 5 4 5 9 10 11 11 10 11 9 7 4 4 7 3 5 4 4 3 10 8 8 7 8 8 9 9
11 7 10 8 7 7 6 4 3 3 4 4 7 6 6 4 3 3 3 3 4 6 4 5 5 4 5 4 4 4 4 4 3 2 5 9 8 7 6 7 7 7 8
11 12 9 9 9 7 5 5 5 5 4 4 5 7 5 4 4 4 3 4 3 3 4 3 3 4 4 4 4 4 4 3 3 2 4 8 8 7 6 6 6 8 8
11 12 13 12 12 10 9 5 6 6 6 6 6 6 6 5 5 4 4 4 4 3 3 4 3 4 4 4 3 4 3 3 3 2 1 6 8 8 6 7 7 8 9
14 15 13 15 14 11 12 10 8 6 6 6 5 7 7 6 5 5 5 4 4 4 3 3 3 3 3 3 2 3 3 3 4 3 2 3 8 8 8 8 9 9 10
16 13 18 16 15 14 15 11 8 8 7 7 7 7 8 7 7 7 5 5 4 4 5 4 3 2 3 2 2 3 4 3 3 3 3 2 3 8 8 10 10 9 9
14 18 15 15 18 17 16 11 8 8 8 8 7 7 10 9 9 7 6 5 5 4 4 4 3 2 2 2 1 3 2 3 4 4 3 3 4 3 10 16 15 13 11
18 16 17 18 19 19 15 11 10 9 8 7 6 7 10 10 9 8 6 5 6 5 4 4 2 2 1 1 2 3 3 3 4 3 6 5 6 5 4 12 14 13 13
14 15 15 15 17 16 11 8 5 6 7 6 8 8 10 8 10 8 6 7 6 5 4 3 3 2 2 1 2 4 4 3 4 3 4 4 5 6 5 6 5 5 12
8 12 15 16 18 14 12 12 9 14 11 10 10 12 12 10 10 9 6 7 6 7 6 5 3 4 1 1 3 3 4 3 5 4 3 4 5 5 5 5 3 3 4
12 15 14 17 16 16 14 13 7 11 9 11 10 11 13 12 11 10 10 8 9 6 7 7 5 4 2 1 4 2 2 2 2 3 2 3 4 3 4 4 4 4 4
10 13 15 16 18 17 16 11 4 6 4 4 6 8 11 14 14 14 13 10 10 8 8 7 6 6 5 1 2 4 3 4 0 2 1 1 1 3 1 3 3 4 4
13 9 11 13 15 14 16 15 20 13 12 11 13 11 11 15 15 14 13 13 12 8 8 8 6 4 5 5 2 2 3 4 4 0 1 2 3 4 2 3 4 4 3
8 9 11 11 14 15 18 18 15 15 11 7 7 11 11 11 12 13 13 12 11 9 9 10 8 7 4 5 4 4 2 3 3 3 3 2 2 2 2 3 4 3 2
4 5 6 9 9 13 15 17 19 19 9 8 9 11 10 8 9 11 12 12 11 10 10 9 8 8 7 4 3 4 5 5 4 4 2 2 3 3 2 3 2 2 0
Wind_Direction
221 184 181 171 175 166 163 157 152 145 147 145 139 130 118 108 102 96 85 101 114 95 79 68 55 44 46 43 53 44 34 28 22 15 18 14 7 82 91 76 60 49 40
149 182 195 171 179 176 167 163 165 166 155 143 136 133 114 114 103 101 91 73 75 88 85 71 59 52 46 39 40 36 30 23 24 20 20 16 13 92 84 72 60 44 38
155 176 172 173 179 180 168 167 175 175 155 147 144 137 112 115 110 114 121 99 76 79 80 79 68 66 58 52 41 37 27 28 27 25 24 10 358 40 68 62 51 40 31
157 163 173 160 170 180 178 180 178 159 156 148 126 120 117 120 117 121 125 128 124 112 105 91 76 68 67 63 56 41 26 36 33 26 16 12 4 12 55 58 51 45 33
149 155 162 152 164 178 175 171 171 159 154 136 131 143 149 152 150 141 131 126 119 116 106 97 84 76 68 63 55 48 44 42 46 35 23 5 360 1 38 58 56 49 39
154 151 164 176 174 164 149 154 159 145 144 143 163 170 172 158 153 143 137 129 120 116 106 100 96 88 80 69 62 62 62 58 55 42 33 11 354 26 32 61 62 59 40
161 164 167 184 191 173 178 170 165 176 192 189 181 174 167 160 152 146 141 134 130 120 114 111 101 92 83 79 70 61 61 63 64 48 34 15 358 36 44 42 40 42 42
158 168 178 191 192 188 192 188 189 195 194 184 181 174 169 161 153 149 142 134 131 122 116 107 100 92 84 79 75 70 64 60 51 49 32 21 24 38 39 36 34 27 31
160 165 181 190 189 193 197 190 194 196 185 183 176 175 168 163 155 154 146 139 133 126 116 111 98 90 82 75 70 68 68 66 60 45 24 7 25 36 39 34 33 29 27
186 190 183 177 166 172 182 177 195 174 175 177 177 166 157 155 151 153 147 147 141 133 126 115 107 98 81 70 62 58 59 59 56 47 24 18 29 31 33 34 32 33 34
213 205 191 185 176 168 169 172 171 162 168 172 161 139 124 119 122 124 159 150 146 138 129 122 118 108 93 77 68 57 51 42 48 39 10 26 26 29 33 34 34 31 35
210 206 194 186 182 170 169 168 155 153 151 146 141 130 133 145 147 149 140 142 139 134 128 120 108 97 86 69 43 52 47 39 37 31 4 22 25 28 31 37 37 38 40
206 193 196 188 183 175 176 163 161 151 148 150 150 146 148 148 148 121 92 73 64 76 54 72 77 66 70 70 53 49 51 55 52 36 4 19 19 20 34 42 47 51 53
198 203 187 187 185 187 172 181 172 167 166 168 167 159 152 157 159 151 135 142 135 119 123 120 113 107 86 79 73 64 58 53 33 27 9 17 19 24 32 50 65 61 57
209 204 200 188 192 187 185 174 175 183 180 174 167 171 163 166 167 152 155 155 149 147 154 147 135 124 124 105 85 83 64 57 49 38 1 32 47 44 46 58 65 69 66
208 206 194 199 196 185 194 187 189 182 172 173 174 181 174 167 160 162 158 168 161 164 154 144 154 138 104 94 81 75 77 63 42 59 42 18 52 56 55 72 68 69 69
214 199 198 194 193 193 196 191 187 186 175 182 186 178 175 170 171 165 161 168 169 165 157 143 145 122 100 85 69 43 54 43 63 63 63 60 57 59 80 74 71 75 67
206 200 188 190 191 194 197 190 189 186 185 189 183 179 181 179 172 164 164 173 161 163 167 160 148 123 108 88 43 39 49 82 85 74 64 76 73 55 59 68 56 51 49
207 200 196 190 191 193 193 186 185 178 191 192 179 183 186 182 175 168 171 164 160 158 173 163 120 143 136 35 27 58 49 62 72 65 56 63 68 72 61 58 54 48 48
209 205 197 192 194 189 184 173 163 168 184 173 188 192 183 185 175 167 161 161 159 155 172 158 150 86 123 111 58 66 48 78 75 61 67 67 76 71 57 54 38 24 28
201 197 196 188 191 175 180 178 188 197 192 191 193 190 185 181 176 173 170 159 161 174 171 170 132 139 82 72 99 42 43 76 57 71 66 90 77 63 58 45 25 29 19
205 203 197 203 190 189 188 192 195 192 208 203 189 178 178 174 174 176 173 175 175 160 173 177 157 140 126 118 138 105 95 339 44 30 63 81 84 52 50 40 55 41 39
222 204 208 201 196 195 190 175 112 92 69 145 180 189 193 182 176 176 174 174 176 175 183 181 173 164 151 109 87 141 110 222 43 7 357 347 12 21 50 19 29 30 40
239 213 207 198 195 194 185 185 190 195 188 199 196 194 190 187 185 181 179 176 176 178 174 183 172 171 147 160 126 93 78 135 166 221 305 283 296 321 261 340 341 348 9
244 212 205 191 191 190 189 188 194 215 210 160 168 176 178 181 183 182 181 180 181 180 180 171 166 183 194 150 152 153 130 68 74 126 219 286 322 295 268 301 313 313 352
307 271 205 187 196 189 191 200 198 205 186 159 160 171 178 179 179 185 182 183 181 184 179 181 180 178 181 174 158 162 161 163 179 156 171 229 239 290 248 283 258 256 173